Weather History for KAWM - January, 2012

Change the Weather History Date:

Sunday, January 1, 2012

  Actual Average Record
Temperature  
Mean Temperature 52 °F -  
Max Temperature 64 °F 47 °F 71 °F (1965)
Min Temperature 39 °F 28 °F 9 °F (1977)
Degree Days  
Heating Degree Days 14    
Growing Degree Days 2 (Base 50)    
Moisture  
Dew Point 40 °F    
Average Humidity 64    
Maximum Humidity 86    
Minimum Humidity 44    
Precipitation  
Precipitation 0.00 in - - ()
Sea Level Pressure  
Sea Level Pressure 30.19 in    
Wind  
Wind Speed 9 mph (WNW)    
Max Wind Speed 18 mph    
Max Gust Speed 30 mph    
Visibility 10 miles    
Events      
Averages and records for this station are not official NWS values.
T = Trace of Precipitation, MM = Missing Value Source: NWS Daily Summary

Daily Weather History Graph

Daily Weather History Graph

Search for Another Location

Airport or City:

Trip Planner

Search our weather history database for the weather conditions in past years. The results will help you decide how hot, cold, wet, or windy it might be!

Date:

Astronomy

Jan. 01, 2012 Rise Set
Actual Time 7:09 AM CST 4:59 PM CST
Civil Twilight 6:41 AM CST 5:27 PM CST
Nautical Twilight 6:09 AM CST 5:59 PM CST
Astronomical Twilight 5:38 AM CST 6:30 PM CST
Moon 11:40 AM CST (1/1) 12:13 AM CST (1/1)
Length of Visible Light 10h 46m
Length of Day
9h 50m
First Quarter, 55% of the Moon is Illuminated
Jan 1
First Quarter
Jan 9
Full
Jan 16
Last Quarter
Jan 23
New
Jan 30
First Quarter

Hourly Weather History & Observations

Time (CST) Temp. Windchill Dew Point Humidity Pressure Visibility Wind Dir Wind Speed Gust Speed Precip Events Conditions
12:21 AM 60.8 °F - 53.6 °F 77% 29.93 in 10.0 mi SSW 8.1 mph - N/A   Mostly Cloudy
12:53 AM 60.1 °F - 55.9 °F 86% 29.92 in 10.0 mi SSW 8.1 mph - N/A   Overcast
1:53 AM 63.0 °F - 57.9 °F 84% 29.93 in 10.0 mi SW 8.1 mph - N/A   Mostly Cloudy
2:00 AM 64.4 °F - 57.2 °F 77% 29.94 in 10.0 mi WSW 9.2 mph 20.7 mph N/A   Mostly Cloudy
2:51 AM 62.6 °F - 57.2 °F 82% 29.95 in 10.0 mi WSW 9.2 mph 18.4 mph N/A   Mostly Cloudy
2:53 AM 63.0 °F - 57.0 °F 81% 29.94 in 10.0 mi WSW 10.4 mph 18.4 mph N/A   Mostly Cloudy
3:29 AM 62.6 °F - 55.4 °F 77% 29.96 in 10.0 mi West 9.2 mph 20.7 mph N/A   Mostly Cloudy
3:53 AM 61.0 °F - 54.0 °F 78% 29.97 in 10.0 mi West 10.4 mph 18.4 mph N/A   Scattered Clouds
4:53 AM 57.9 °F - 46.9 °F 67% 30.01 in 10.0 mi West 9.2 mph 23.0 mph N/A   Clear
5:53 AM 54.0 °F - 36.0 °F 51% 30.08 in 10.0 mi NW 12.7 mph 29.9 mph N/A   Clear
6:53 AM 48.9 °F - 36.0 °F 61% 30.17 in 10.0 mi NW 12.7 mph 20.7 mph N/A   Clear
7:53 AM 48.0 °F - 35.1 °F 61% 30.22 in 10.0 mi NW 13.8 mph 21.9 mph N/A   Clear
8:53 AM 48.9 °F - 36.0 °F 61% 30.26 in 10.0 mi NNW 10.4 mph 17.3 mph N/A   Clear
9:53 AM 50.0 °F - 37.0 °F 61% 30.29 in 10.0 mi NNW 12.7 mph 21.9 mph N/A   Clear
10:53 AM 52.0 °F - 36.0 °F 54% 30.28 in 10.0 mi NW 13.8 mph 24.2 mph N/A   Clear
11:53 AM 52.0 °F - 34.0 °F 50% 30.29 in 10.0 mi NNW 9.2 mph 21.9 mph N/A   Clear
12:53 PM 53.1 °F - 33.1 °F 47% 30.28 in 10.0 mi NW 16.1 mph 25.3 mph N/A   Clear
1:53 PM 52.0 °F - 32.0 °F 47% 30.30 in 10.0 mi NW 18.4 mph 26.5 mph N/A   Clear
4:53 PM 50.0 °F - 28.9 °F 44% 30.36 in 10.0 mi NW 6.9 mph - N/A   Clear
5:53 PM 46.0 °F 43.1 °F 30.0 °F 54% 30.36 in 10.0 mi NW 5.8 mph - N/A   Clear
6:53 PM 45.0 °F 41.2 °F 30.0 °F 56% 30.39 in 10.0 mi NW 6.9 mph - N/A   Clear
7:53 PM 43.0 °F 39.5 °F 30.0 °F 60% 30.41 in 10.0 mi NW 5.8 mph - N/A   Clear
8:53 PM 41.0 °F 38.0 °F 30.0 °F 65% 30.42 in 10.0 mi NW 4.6 mph - N/A   Clear
9:53 PM 39.9 °F 35.8 °F 28.0 °F 63% 30.43 in 10.0 mi NW 5.8 mph - N/A   Clear
10:53 PM 39.9 °F 36.7 °F 26.1 °F 58% 30.45 in 10.0 mi NNW 4.6 mph - N/A   Clear
11:53 PM 39.0 °F 34.8 °F 24.1 °F 55% 30.44 in 10.0 mi NW 5.8 mph - N/A   Clear